FW7618 Weather Reports


time (UTC)temp
C
wind
direction
speed
KPH
gust
KPH
rain 1hr
cm
rain 24hr
cm
rain mn
cm
humidity
%
barometer
mb
20260509013042 17 87 1.6 6.4 0.00 0.03 0.03 61 1010.1
20260509011538 17 0 0.0 0.0 0.00 0.03 0.03 59 1010.1
20260509010037 17 0 0.0 0.0 0.00 0.03 0.03 56 1010.0
20260509004545 18 0 0.0 0.0 0.00 0.03 0.03 52 1009.5
20260509003044 18 0 0.0 3.2 0.00 0.03 0.03 53 1009.4
20260509001542 18 0 0.0 1.6 0.00 0.03 0.03 52 1009.6
20260509000040 18 0 0.0 6.4 0.00 0.03 0.03 53 1009.5
20260508234537 18 0 0.0 6.4 0.00 0.03 0.03 52 1009.5
20260508233106 18 0 0.0 3.2 0.00 0.03 0.03 54 1009.5
20260508231631 18 0 0.0 6.4 0.00 0.03 0.03 54 1009.6
20260508230054 18 46 0.0 8.0 0.00 0.03 0.03 50 1009.4
20260508224542 19 0 0.0 8.0 0.00 0.03 0.03 49 1009.4
20260508223048 19 0 0.0 6.4 0.00 0.03 0.03 48 1009.2
20260508221543 19 37 0.0 9.7 0.00 0.03 0.03 49 1009.2
20260508220044 19 0 0.0 4.8 0.00 0.03 0.03 48 1009.3
20260508214610 19 0 1.6 9.7 0.00 0.03 0.03 48 1009.2
20260508213048 20 94 0.0 9.7 0.00 0.03 0.03 47 1009.4
20260508211549 20 49 3.2 11.3 0.00 0.03 0.03 45 1009.4
20260508210052 19 94 0.0 12.9 0.00 0.03 0.03 48 1009.8
20260508204545 19 0 0.0 9.7 0.00 0.03 0.03 46 1010.1
20260508203041 20 87 1.6 11.3 0.00 0.03 0.03 45 1010.4
20260508201547 20 98 1.6 9.7 0.00 0.03 0.03 46 1010.5
20260508200038 20 0 1.6 16.1 0.00 0.03 0.03 47 1010.5
20260508194534 20 103 4.8 11.3 0.00 0.03 0.03 44 1010.6
20260508193051 20 72 0.0 9.7 0.00 0.03 0.03 44 1010.8
20260508191543 21 0 0.0 17.7 0.00 0.03 0.03 44 1010.9
20260508190042 21 0 3.2 11.3 0.00 0.03 0.03 42 1011.1
20260508184540 21 63 1.6 12.9 0.00 0.03 0.03 40 1011.4
20260508183035 20 99 3.2 11.3 0.00 0.03 0.03 42 1011.5
20260508181537 20 19 1.6 14.5 0.00 0.03 0.03 44 1011.8
20260508180043 20 98 4.8 16.1 0.00 0.03 0.03 43 1012.1
20260508174542 20 82 3.2 12.9 0.00 0.03 0.03 44 1012.2
20260508173039 19 88 6.4 14.5 0.00 0.03 0.03 44 1012.4
20260508171538 19 22 3.2 14.5 0.00 0.03 0.03 47 1012.9
20260508170033 20 89 3.2 16.1 0.00 0.03 0.03 48 1013.2
20260508164544 19 92 4.8 12.9 0.00 0.03 0.03 48 1013.5
20260508163042 19 0 3.2 12.9 0.00 0.03 0.03 46 1013.7
20260508161543 18 352 3.2 8.0 0.00 0.03 0.03 50 1013.7
20260508160037 18 100 6.4 14.5 0.00 0.03 0.03 49 1014.0
20260508154533 17 64 6.4 14.5 0.00 0.03 0.03 49 1014.2
20260508153043 17 82 1.6 12.9 0.00 0.03 0.03 53 1014.5
20260508151542 17 91 3.2 12.9 0.00 0.03 0.03 53 1014.5
20260508150040 16 5 1.6 9.7 0.00 0.03 0.03 54 1014.7
20260508144537 16 88 3.2 12.9 0.00 0.03 0.03 54 1014.8
20260508143046 15 11 1.6 14.5 0.00 0.03 0.03 56 1014.7
20260508141540 15 69 3.2 14.5 0.03 0.03 0.03 55 1014.9
20260508140043 14 96 1.6 11.3 0.03 0.03 0.03 56 1015.0
20260508134542 13 89 1.6 9.7 0.03 0.03 0.03 58 1015.1
20260508133037 12 0 1.6 6.4 0.03 0.03 0.03 61 1015.1
20260508131545 11 0 0.0 6.4 0.00 0.00 0.00 64 1015.1
20260508130043 11 61 0.0 6.4 0.00 0.00 0.00 67 1015.0
20260508124542 10 348 0.0 6.4 0.00 0.00 0.00 68 1014.9
20260508123040 10 0 0.0 8.0 0.00 0.00 0.00 70 1015.0
20260508121542 9 0 0.0 6.4 0.00 0.00 0.00 69 1015.0
20260508120045 9 0 0.0 6.4 0.00 0.00 0.00 70 1014.9
20260508114551 9 0 1.6 4.8 0.00 0.00 0.00 70 1014.7
20260508113044 9 0 0.0 4.8 0.00 0.00 0.00 69 1014.7
20260508111557 9 0 0.0 4.8 0.00 0.00 0.00 69 1014.4
20260508110043 9 20 0.0 3.2 0.00 0.00 0.00 69 1014.3
20260508104541 9 0 0.0 3.2 0.00 0.00 0.00 69 1014.5
20260508103045 8 0 0.0 0.0 0.00 0.00 0.00 70 1014.5
20260508101542 8 0 0.0 3.2 0.00 0.00 0.00 70 1014.4
20260508100047 8 0 0.0 1.6 0.00 0.00 0.00 70 1014.4
20260508094537 8 0 0.0 1.6 0.00 0.03 0.00 69 1014.5
20260508093043 8 0 0.0 1.6 0.00 0.03 0.00 69 1014.5
20260508091555 8 0 0.0 0.0 0.00 0.03 0.00 69 1014.5
20260508090045 8 0 0.0 3.2 0.00 0.03 0.00 69 1014.5
20260508084542 8 5 0.0 3.2 0.00 0.03 0.00 69 1014.4
20260508083047 8 0 0.0 0.0 0.00 0.03 0.00 68 1014.3
20260508081546 8 0 0.0 0.0 0.00 0.03 0.00 67 1014.3
20260508080035 8 0 0.0 0.0 0.00 0.03 0.00 67 1014.2
20260508074538 8 0 0.0 0.0 0.00 0.03 0.00 66 1014.3
20260508073033 8 0 0.0 0.0 0.00 0.03 0.00 66 1014.2
20260508071538 8 0 0.0 0.0 0.00 0.03 0.00 66 1014.4
20260508070047 8 0 0.0 3.2 0.00 0.03 0.00 65 1014.4
20260508064543 8 0 0.0 0.0 0.00 0.03 0.00 65 1014.6
20260508063044 8 0 0.0 0.0 0.00 0.03 0.00 65 1014.9
20260508061541 8 0 0.0 3.2 0.00 0.03 0.00 66 1015.0
20260508060042 8 0 0.0 1.6 0.00 0.03 0.00 65 1015.0
20260508054543 8 0 0.0 1.6 0.00 0.03 0.00 65 1015.0
20260508053047 9 0 0.0 3.2 0.00 0.03 0.00 65 1015.1
20260508051546 9 0 0.0 0.0 0.00 0.03 0.00 64 1014.9
20260508050045 9 0 0.0 4.8 0.00 0.03 0.00 63 1014.8
20260508044539 10 0 0.0 3.2 0.00 0.03 0.00 62 1015.0
20260508043040 10 0 0.0 0.0 0.00 0.03 0.00 62 1014.8
20260508041536 10 0 0.0 0.0 0.00 0.03 0.00 61 1014.8
20260508040040 10 0 0.0 0.0 0.00 0.03 0.00 59 1014.6
20260508034548 10 0 0.0 4.8 0.00 0.03 0.03 60 1014.6
20260508033037 10 0 0.0 1.6 0.00 0.03 0.03 59 1014.6
20260508031536 10 0 0.0 0.0 0.00 0.03 0.03 58 1014.7
20260508030043 10 0 0.0 0.0 0.00 0.03 0.03 59 1014.7
20260508024553 10 0 0.0 0.0 0.00 0.03 0.03 63 1014.8
20260508023039 10 0 0.0 0.0 0.00 0.03 0.03 58 1014.6
20260508021539 10 0 0.0 0.0 0.00 0.03 0.03 64 1014.7
20260508020039 10 0 0.0 0.0 0.00 0.03 0.03 63 1014.6
20260508014535 10 0 0.0 0.0 0.00 0.03 0.03 60 1014.6